Theta_e
349 350 349 348 350 349 348 348 349 348 347 350 351 352 354 355 356 357 357 359 360 360 361 362 361 360 360 360 359 358 357 356 356 354 352 351 349 346 342 341 339 337
349 350 351 350 349 351 350 349 349 350 349 350 352 353 354 355 355 357 356 358 360 360 360 361 361 361 360 359 358 358 356 355 355 357 354 350 350 349 344 341 341 339
350 349 350 350 349 349 351 351 350 350 351 351 353 354 355 356 355 356 356 357 358 359 359 360 361 361 360 359 359 358 357 355 354 356 355 351 350 349 347 342 341 340
350 350 350 351 351 350 351 352 351 351 351 352 352 355 356 357 356 355 355 360 357 358 359 360 360 361 361 360 359 358 357 356 356 356 355 353 352 351 348 344 341 341
350 350 351 351 352 352 351 351 352 352 351 352 354 355 356 356 356 356 355 356 356 357 358 358 360 360 360 360 359 358 357 356 356 355 354 353 352 351 349 346 343 340
351 351 352 352 352 352 351 351 353 353 352 351 353 356 356 357 356 356 355 354 356 357 357 357 358 360 360 360 359 358 357 356 356 355 354 353 353 353 351 348 345 342
351 351 351 352 352 352 351 351 352 354 354 353 353 354 356 356 356 356 355 355 355 356 356 356 356 357 359 359 359 357 357 357 356 355 353 353 353 352 352 349 346 344
351 352 352 353 352 352 351 351 351 352 355 355 353 354 356 356 357 357 356 355 354 355 356 357 357 356 358 359 358 357 357 357 356 355 353 353 353 352 352 351 348 346
352 352 353 353 352 352 352 352 351 350 353 355 355 355 356 357 356 356 356 356 355 355 355 356 356 356 357 358 358 357 357 357 357 356 355 353 352 352 352 351 349 347
351 352 352 353 352 353 352 352 352 351 351 352 356 357 356 357 357 356 356 355 355 355 355 355 356 356 356 357 358 358 357 357 356 356 356 355 354 353 352 351 350 348
352 352 351 352 352 353 353 353 353 352 351 350 352 355 357 357 357 357 356 355 355 354 355 355 355 356 356 356 357 358 358 357 357 356 356 355 355 354 356 352 350 349
352 352 351 351 352 353 353 353 353 352 351 351 350 351 354 357 356 356 356 356 355 355 355 355 356 356 356 356 356 357 358 358 357 357 356 356 355 355 355 353 351 350
352 352 352 352 352 352 353 353 353 353 352 350 351 350 350 353 356 356 355 356 356 356 355 355 355 356 356 356 356 357 357 357 357 356 356 356 356 356 355 355 353 351
353 353 353 353 353 353 353 353 353 352 352 351 351 349 349 350 353 356 356 355 355 356 356 356 355 355 356 357 357 357 357 357 357 356 356 355 355 356 356 355 355 354
354 354 354 354 354 353 352 352 352 352 352 351 350 350 350 350 351 354 355 355 354 355 356 357 356 355 355 356 357 356 357 356 357 356 356 355 354 355 355 355 355 355
355 355 354 354 353 353 352 352 352 351 351 350 350 350 350 350 350 351 353 354 354 353 354 356 357 357 348 336 341 356 356 357 357 356 356 355 354 353 353 354 355 355
354 354 354 353 353 353 353 352 352 351 350 350 350 350 350 350 350 350 351 352 353 353 353 353 355 356 339 333 333 337 352 356 356 355 356 355 355 353 352 353 354 355
355 354 354 353 353 352 352 352 352 351 350 349 348 349 350 350 350 350 351 352 353 353 353 353 353 340 334 332 332 331 337 356 356 356 356 355 355 354 354 353 353 353
355 354 354 353 353 353 353 352 351 350 349 348 347 348 349 349 349 350 350 351 352 352 352 354 354 339 332 330 331 330 330 341 356 356 355 355 355 355 354 353 353 352
356 354 353 353 353 353 352 351 350 349 349 349 349 348 348 349 349 349 350 349 350 351 352 353 354 340 330 327 328 328 329 333 354 356 355 355 355 355 355 354 353 352
356 355 353 353 353 352 352 351 351 350 349 349 349 348 347 348 349 349 349 350 350 351 351 352 354 337 329 326 325 325 327 329 351 356 356 355 355 355 355 355 354 354
356 355 354 353 352 351 351 351 351 351 349 349 349 349 349 349 350 351 350 350 350 350 350 350 353 333 327 324 323 323 325 338 349 353 355 355 355 355 355 356 355 355
357 355 354 353 352 351 350 350 350 351 351 351 349 349 348 348 349 350 352 352 352 352 350 350 352 338 325 322 321 321 324 343 348 351 354 355 355 355 355 355 356 356
357 356 355 354 353 351 351 350 351 351 351 352 350 349 348 349 349 350 352 353 353 353 353 352 352 342 322 319 319 319 327 345 348 350 352 353 354 355 356 355 355 348
357 357 356 355 354 353 353 351 351 351 351 352 351 350 350 350 350 349 350 351 353 354 348 351 354 344 317 319 317 318 328 347 350 351 351 352 353 354 355 355 355 350
357 357 357 356 355 354 354 354 353 352 351 351 351 351 350 350 350 349 349 350 351 352 354 354 354 354 332 317 316 316 320 345 351 351 350 351 352 353 353 354 355 354
Wind_Speed
13 11 11 11 10 10 11 11 10 10 10 9 9 9 10 9 8 9 9 8 9 9 8 8 7 7 7 6 6 6 6 7 6 5 6 6 5 5 5 5 4 5
14 13 11 10 8 7 8 10 10 10 10 9 9 8 8 7 9 9 9 9 9 9 9 8 8 8 7 7 7 7 6 6 7 5 6 7 6 6 6 5 5 4
14 13 13 12 12 11 10 9 9 9 9 9 8 8 8 8 9 9 9 9 9 9 9 9 8 8 8 8 7 7 8 7 8 7 7 8 7 7 6 6 5 6
15 14 14 14 12 12 10 9 9 8 8 7 9 9 9 8 9 10 9 10 9 9 9 9 9 9 8 8 8 8 8 8 8 7 7 6 7 7 7 6 6 6
16 14 13 13 12 11 10 10 11 10 10 11 9 9 9 9 9 10 9 9 9 9 9 9 9 9 9 8 8 8 8 8 8 8 8 8 7 7 7 7 7 8
13 13 13 13 13 12 11 12 12 11 11 11 11 9 10 10 10 10 10 11 10 10 10 9 9 9 9 9 9 9 8 8 8 8 9 9 8 7 6 7 8 8
14 14 14 12 11 11 11 12 11 11 11 12 9 10 9 10 11 11 11 11 11 10 10 10 10 10 9 9 9 9 9 9 8 9 10 9 8 9 8 8 9 9
16 14 14 12 13 12 12 11 11 11 11 9 11 11 10 11 12 11 11 11 11 11 11 11 11 11 10 9 10 10 10 8 8 9 10 9 8 10 10 8 8 10
15 14 14 14 14 13 13 12 11 11 9 10 12 11 11 11 12 11 11 11 11 11 11 11 12 11 11 10 11 11 12 10 10 10 11 11 11 12 11 10 9 10
15 14 16 15 15 13 14 13 12 11 10 11 11 10 11 11 11 12 11 11 12 12 12 12 12 11 11 12 12 12 12 12 11 11 11 12 13 12 11 11 12 11
16 15 16 16 16 14 15 15 14 12 11 12 11 11 11 11 10 11 12 12 12 13 13 13 13 13 13 13 12 12 13 12 12 12 12 13 13 12 11 12 12 13
17 16 17 17 16 15 16 15 14 14 13 12 12 13 12 12 12 11 12 13 14 14 14 14 13 13 13 14 14 13 13 13 12 12 13 12 12 12 12 12 13 14
17 16 15 15 16 15 14 14 15 15 15 14 13 14 13 13 13 13 12 13 14 14 14 14 13 13 13 13 13 13 13 13 13 13 13 12 12 13 12 12 12 12
16 16 16 16 15 15 15 15 14 14 14 14 13 14 14 14 14 14 13 13 14 13 14 13 12 12 13 13 13 14 13 13 13 13 13 13 13 13 13 13 13 13
15 14 14 14 15 15 15 15 15 14 14 14 13 14 13 14 14 14 14 14 14 13 13 12 12 13 12 13 13 14 14 14 14 14 13 13 13 13 13 13 12 12
16 14 14 14 15 15 15 15 15 14 14 14 14 14 14 14 14 14 14 15 14 14 13 12 12 11 15 20 18 14 14 12 12 13 13 13 13 13 12 13 13 12
14 14 14 14 15 14 14 15 16 14 14 14 14 14 15 15 14 15 15 15 15 14 15 13 13 12 19 19 20 21 15 13 13 13 12 12 12 12 13 13 12 13
14 14 14 14 14 15 15 14 14 14 14 14 14 15 14 13 15 15 15 15 13 14 15 15 14 16 19 19 20 21 19 15 12 11 11 12 12 13 12 11 12 12
15 15 15 15 15 14 14 13 14 14 15 15 16 14 12 14 15 15 16 15 15 15 16 15 14 18 19 20 21 21 22 18 12 12 12 12 12 13 13 12 11 10
15 15 15 15 15 15 14 14 15 16 15 14 12 12 14 15 15 16 15 15 15 16 15 14 15 17 20 20 20 21 21 19 15 14 12 12 13 13 12 12 12 11
15 15 15 15 15 15 15 15 16 15 15 14 13 14 15 15 15 15 15 15 16 15 14 14 14 19 19 20 20 21 21 18 14 13 12 12 12 12 13 13 12 12
15 15 15 14 15 15 15 16 15 16 16 14 13 13 13 12 12 13 14 15 15 14 14 15 14 17 18 19 21 19 18 12 12 14 14 13 12 12 12 12 12 13
15 15 15 15 15 15 16 15 15 15 14 12 14 14 14 14 15 14 13 13 14 14 15 15 14 13 16 18 18 18 13 11 12 12 13 14 14 12 12 12 12 13
15 16 16 15 15 16 16 15 15 14 14 13 15 15 15 15 14 13 13 13 14 15 15 14 13 11 15 16 18 19 17 13 12 12 14 14 13 13 12 11 13 18
15 16 17 16 16 16 15 16 15 15 14 14 14 14 15 13 12 13 13 12 13 14 15 15 12 10 15 17 19 21 18 12 12 12 13 13 12 13 12 12 12 14
14 16 16 17 17 16 15 15 13 12 13 13 13 12 12 12 12 12 14 13 12 12 12 13 12 9 12 19 20 21 23 15 11 11 13 13 13 13 12 12 12 12
Wind_Direction
193 192 194 196 197 197 190 188 189 189 191 189 192 194 193 196 187 191 194 194 197 198 197 196 193 196 198 193 189 191 195 203 205 202 200 189 192 185 193 205 208 198
195 194 196 197 197 198 200 195 188 188 189 191 195 191 193 184 192 191 192 195 196 200 198 196 195 195 197 195 191 191 196 194 204 194 198 198 199 189 200 198 198 217
194 196 196 197 198 197 197 197 194 193 190 192 189 188 189 188 191 195 193 192 195 200 199 198 197 197 196 198 193 194 194 196 201 196 193 202 199 194 205 194 195 199
196 196 198 199 199 198 196 192 197 195 191 183 192 192 188 189 191 194 195 194 194 198 199 197 200 199 198 199 194 198 198 198 200 190 197 202 204 201 203 194 197 198
195 196 199 201 202 200 195 196 197 196 194 195 191 189 189 189 190 194 194 197 197 199 197 199 200 201 201 202 197 201 201 201 200 193 197 203 206 200 205 193 200 202
198 200 200 201 200 195 195 198 200 197 199 196 195 186 192 189 191 193 194 195 199 199 199 200 199 203 200 203 202 208 202 200 199 196 200 204 205 205 202 201 204 210
196 197 200 202 204 203 203 203 201 199 200 202 192 194 187 189 193 195 195 197 196 199 200 200 202 203 201 201 203 209 208 202 194 195 202 207 203 206 208 200 207 215
196 197 199 199 202 203 206 207 203 201 202 196 197 201 190 192 194 195 196 196 198 201 203 204 203 204 202 200 204 207 210 205 201 195 202 207 203 208 207 208 204 211
194 195 196 199 201 203 208 208 209 207 198 198 202 200 198 198 197 196 195 196 200 202 204 207 205 204 204 202 205 206 208 209 205 201 202 204 205 210 208 206 207 211
195 196 196 199 201 203 206 207 209 209 202 205 205 200 200 204 201 200 198 198 202 204 205 209 206 205 205 206 206 206 208 209 208 207 208 209 209 209 208 205 210 213
198 197 199 199 201 202 205 206 207 207 205 209 206 205 204 202 203 200 201 202 205 207 207 208 208 205 206 208 209 209 209 209 210 211 212 214 214 212 208 207 210 214
199 199 200 200 201 202 204 205 206 206 206 209 207 209 207 205 204 201 201 204 208 209 209 209 207 206 207 209 209 209 210 211 211 212 214 215 217 218 214 211 212 215
200 200 200 200 201 203 204 205 206 206 206 208 206 209 207 207 207 206 206 206 209 210 211 209 208 207 208 210 211 210 211 212 213 214 216 216 219 218 217 216 217 219
202 201 200 200 200 201 204 207 207 207 207 207 206 208 209 209 209 207 209 209 210 210 212 210 208 209 210 210 210 211 211 213 213 214 216 218 220 220 218 218 218 218
202 202 201 200 199 200 204 207 208 209 208 208 207 208 210 212 211 209 209 213 214 212 213 211 210 212 211 209 210 213 212 215 214 214 215 218 220 222 220 220 220 219
199 199 200 199 200 202 204 205 207 208 208 209 209 208 210 211 212 211 212 213 213 213 213 213 214 215 214 210 208 209 212 215 215 217 217 217 219 222 224 222 222 221
196 199 199 200 202 203 204 205 207 207 208 210 211 209 209 210 210 211 213 214 213 213 213 215 216 217 212 209 210 210 209 213 215 218 217 219 220 220 223 224 225 224
196 197 199 202 200 204 204 205 206 207 209 210 211 212 211 210 212 213 215 214 214 215 216 217 219 217 211 208 209 210 209 212 215 218 218 219 221 222 225 225 226 226
195 196 198 200 201 202 203 203 205 208 210 210 212 212 211 213 214 214 216 215 214 216 218 218 221 215 211 208 208 208 209 211 217 216 217 221 221 223 225 225 225 225
196 197 198 199 198 199 200 201 203 208 210 211 212 210 214 216 215 217 217 216 217 218 220 221 221 217 208 208 207 207 207 204 220 218 219 222 222 222 224 226 225 224
195 196 198 198 198 198 199 201 202 206 206 207 207 211 214 215 215 217 219 218 220 220 222 224 226 217 207 205 207 206 205 199 217 222 226 225 225 223 224 226 226 225
193 195 197 197 198 199 201 202 203 203 205 203 207 212 216 218 221 221 222 221 221 222 224 230 230 216 206 204 205 206 198 199 214 222 227 229 227 224 224 226 226 225
193 194 195 196 197 199 202 202 202 205 206 201 207 210 210 213 217 218 220 220 221 221 223 230 233 216 202 200 201 198 187 207 213 222 228 231 231 226 227 225 225 225
193 192 194 195 198 200 201 202 203 204 204 199 204 207 211 214 214 218 219 220 219 221 220 227 230 211 191 191 190 189 191 203 212 218 227 230 233 231 230 229 227 224
192 193 193 194 198 200 199 201 201 201 203 200 206 208 213 213 212 216 219 220 220 221 219 221 227 208 183 182 187 189 194 208 209 217 225 228 229 233 231 232 232 227
192 192 193 194 198 199 200 201 201 201 201 202 206 208 212 213 213 215 218 221 220 221 220 217 218 211 183 184 186 192 194 200 210 213 223 226 227 230 231 231 232 234